{"data":{"norad_id":60409,"epoch":"2026-05-25T02:15:25.404192Z","epoch_age_seconds":69985,"freshness":"FRESH","line1":"1 60409U 24141M   26145.09404403  .00001074  00000+0  13718-4 0  9998","line2":"2 60409  53.1591  69.5700 0000859  69.7336 290.3774 15.69716057103696","mean_motion":15.69716057,"eccentricity":8.59e-5,"inclination_deg":53.1591,"raan_deg":69.57,"arg_perigee_deg":69.7336,"mean_anomaly_deg":290.3774,"bstar":1.3718e-5,"rev_number":10369,"period_min":91.736336236,"perigee_km":359.13063665274,"apogee_km":360.28819866729,"semimajor_km":6737.84641766,"source":"CELESTRAK","updated_at":"2026-05-25T13:38:19.269569Z"}}